{"data":{"norad_id":44481,"intl_designator":"2019-051A","name":"AEHF-5 (USA 292)","alt_names":[],"object_type":"PAYLOAD","status":"ACTIVE","operator":null,"country":"US","launch_date":"2019-08-08","launch_site_code":"AFETR","launch_vehicle":null,"mission":null,"orbit_class":"UNKNOWN","rcs_meters":null,"size_class":null,"mass_kg":null,"dimensions":null,"purposes":["comms"],"wikipedia_slug":null,"has_3d_model":false,"image_url":null,"decayed_at":null,"tle_current":{"epoch":"2026-05-25T02:28:37.599744Z","epoch_age_seconds":65407,"freshness":"FRESH","line1":"1 44481U 19051A   26145.10321296 -.00000263  00000+0  00000+0 0  9999","line2":"2 44481   1.4750 334.5045 0067777   1.6763  36.7588  1.00272696 25031","mean_motion":1.00272696,"eccentricity":0.0067777,"inclination_deg":1.475,"raan_deg":334.5045,"arg_perigee_deg":1.6763,"mean_anomaly_deg":36.7588,"bstar":0,"rev_number":2503,"period_min":1436.083856766,"perigee_km":35500.56140386,"apogee_km":36072.117749648,"semimajor_km":42164.476576754,"source":"CELESTRAK","updated_at":"2026-05-25T13:38:14.089046Z"}}}